OK,27,80,1057,27,2014-10-01T01:40:00,0,28072827,190609
OK,27,80,1057,27,2014-10-01T01:45:00,0,28073274,190609
OK,27,80,1057,27,2014-10-01T01:50:00,0,28073722,190609
OK,27,80,1057,27,2014-10-01T01:55:00,0,28074040,190609
OK,27,80,1057,27,2014-10-01T02:05:00,0,28074929,190609
OK,27,80,1057,27,2014-10-01T02:10:00,0,28075378,190609
OK,27,80,1057,27,2014-10-01T02:15:00,1,28075827,190609
OK,27,80,1057,27,2014-10-01T02:20:00,0,28076210,190609
OK,27,80,1057,27,2014-10-01T02:25:00,0,28076659,190609
OK,27,80,1057,27,2014-10-01T02:30:00,0,28077108,190609
OK,27,80,1057,27,2014-10-01T02:35:00,0,28077557,190609
OK,27,80,1057,27,2014-10-01T02:40:00,0,28077960,190609
OK,27,80,1057,27,2014-10-01T02:45:00,0,28078409,190609
OK,27,80,1057,27,2014-10-01T02:50:00,0,28078854,190609
OK,27,80,1057,27,2014-10-01T02:55:00,0,28079302,190609
OK,27,80,1057,27,2014-10-01T03:00:00,0,28079745,190609
OK,27,80,1057,27,2014-10-01T03:05:00,0,28080194,190609
OK,27,80,1057,27,2014-10-01T03:10:00,0,28080528,190609
OK,27,80,1057,27,2014-10-01T03:15:00,0,28080977,190609
OK,27,80,1057,27,2014-10-01T03:20:00,0,28081426,190609
OK,27,80,1057,27,2014-10-01T03:25:00,0,28081873,190609
OK,36,60,1057,36,2014-10-01T03:30:00,1,28082322,190609
OK,30,72,1057,30,2014-10-01T03:35:00,2,28082755,190609
OK,44,49,1057,44,2014-10-01T03:40:00,3,28083187,190609
OK,44,49,1057,44,2014-10-01T03:45:00,3,28083636,190609
OK,22,98,1057,22,2014-10-01T03:50:00,2,28084085,190609
OK,24,90,1057,24,2014-10-01T03:55:00,1,28084526,190609
OK,29,74,1057,29,2014-10-01T04:00:00,1,28084951,190609
OK,31,69,1057,31,2014-10-01T04:05:00,1,28085400,190609
OK,35,61,1057,35,2014-10-01T04:10:00,5,28085845,190609
OK,32,67,1057,32,2014-10-01T04:15:00,2,28086294,190609
OK,74,29,1057,74,2014-10-01T04:20:00,2,28086736,190609
OK,116,18,1057,116,2014-10-01T04:25:00,1,28087185,190609
OK,116,18,1057,116,2014-10-01T04:30:00,0,28087630,190609
OK,33,65,1057,33,2014-10-01T04:35:00,4,28088079,190609
OK,33,65,1057,33,2014-10-01T04:40:00,8,28088503,190609
OK,30,72,1057,30,2014-10-01T04:45:00,8,28088952,190609
OK,32,67,1057,32,2014-10-01T04:50:00,8,28089382,190609
OK,33,65,1057,33,2014-10-01T04:55:00,9,28089831,190609
OK,33,65,1057,33,2014-10-01T05:00:00,8,28090280,190609
OK,35,61,1057,35,2014-10-01T05:05:00,8,28090624,190609
OK,30,72,1057,30,2014-10-01T05:10:00,8,28091073,190609
OK,32,67,1057,32,2014-10-01T05:15:00,9,28091522,190609
OK,32,67,1057,32,2014-10-01T05:20:00,7,28091939,190609
OK,31,69,1057,31,2014-10-01T05:25:00,9,28092388,190609
OK,32,67,1057,32,2014-10-01T05:30:00,16,28092832,190609
OK,33,65,1057,33,2014-10-01T05:35:00,16,28093273,190609
OK,31,69,1057,31,2014-10-01T05:40:00,15,28093704,190609
OK,31,69,1057,31,2014-10-01T05:45:00,17,28094153,190609
OK,39,55,1057,39,2014-10-01T05:50:00,20,28094564,190609
OK,39,55,1057,39,2014-10-01T05:55:00,18,28095009,190609
OK,36,60,1057,36,2014-10-01T06:00:00,15,28095456,190609
OK,34,63,1057,34,2014-10-01T06:05:00,12,28095905,190609
OK,34,63,1057,34,2014-10-01T06:10:00,11,28096318,190609
OK,35,61,1057,35,2014-10-01T06:15:00,9,28096767,190609
OK,45,48,1057,45,2014-10-01T06:20:00,8,28097201,190609
OK,41,52,1057,41,2014-10-01T06:25:00,8,28097650,190609
OK,34,63,1057,34,2014-10-01T06:30:00,12,28098099,190609
OK,36,60,1057,36,2014-10-01T06:35:00,11,28098536,190609
OK,49,44,1057,49,2014-10-01T06:40:00,2,28098980,190609
OK,34,63,1057,34,2014-10-01T06:45:00,7,28099428,190609
OK,33,65,1057,33,2014-10-01T06:50:00,12,28099771,190609
OK,32,67,1057,32,2014-10-01T06:55:00,14,28100220,190609
OK,32,67,1057,32,2014-10-01T07:00:00,11,28100527,190609
OK,32,67,1057,32,2014-10-01T07:10:00,12,28101347,190609
OK,32,67,1057,32,2014-10-01T07:15:00,17,28101796,190609
OK,32,67,1057,32,2014-10-01T07:20:00,15,28102232,190609
OK,35,61,1057,35,2014-10-01T07:25:00,15,28102681,190609
OK,35,61,1057,35,2014-10-01T07:30:00,16,28103109,190609
OK,35,61,1057,35,2014-10-01T07:35:00,11,28103555,190609
OK,31,69,1057,31,2014-10-01T07:40:00,17,28104000,190609
OK,29,74,1057,29,2014-10-01T07:45:00,17,28104445,190609
OK,28,77,1057,28,2014-10-01T07:50:00,6,28104886,190609
OK,31,69,1057,31,2014-10-01T07:55:00,7,28105331,190609
OK,31,69,1057,31,2014-10-01T08:00:00,11,28105771,190609
OK,36,60,1057,36,2014-10-01T08:05:00,9,28106220,190609
OK,35,61,1057,35,2014-10-01T08:10:00,14,28106657,190609
OK,34,63,1057,34,2014-10-01T08:15:00,13,28107063,190609
OK,34,63,1057,34,2014-10-01T08:20:00,10,28107495,190609
OK,32,67,1057,32,2014-10-01T08:25:00,9,28107944,190609
OK,32,67,1057,32,2014-10-01T08:30:00,7,28108383,190609
OK,31,69,1057,31,2014-10-01T08:35:00,8,28108832,190609
OK,32,67,1057,32,2014-10-01T08:40:00,9,28109260,190609
OK,35,61,1057,35,2014-10-01T08:45:00,11,28109709,190609
OK,33,65,1057,33,2014-10-01T08:50:00,17,28110052,190609
OK,31,69,1057,31,2014-10-01T09:00:00,11,28110924,190609
OK,31,69,1057,31,2014-10-01T09:05:00,11,28111373,190609
OK,32,67,1057,32,2014-10-01T09:10:00,9,28111802,190609
OK,32,67,1057,32,2014-10-01T09:15:00,10,28112251,190609
OK,29,74,1057,29,2014-10-01T09:20:00,8,28112592,190609
OK,30,72,1057,30,2014-10-01T09:30:00,14,28113465,190609
OK,30,72,1057,30,2014-10-01T09:35:00,24,28113914,190609
OK,30,72,1057,30,2014-10-01T09:40:00,15,28114346,190609
OK,31,69,1057,31,2014-10-01T09:45:00,2,28114795,190609
OK,34,63,1057,34,2014-10-01T09:50:00,10,28115149,190609
OK,33,65,1057,33,2014-10-01T10:00:00,15,28116010,190609
OK,37,58,1057,37,2014-10-01T10:05:00,13,28116459,190609
OK,32,67,1057,32,2014-10-01T10:10:00,17,28116867,190609
OK,33,65,1057,33,2014-10-01T10:15:00,16,28117316,190609
OK,39,55,1057,39,2014-10-01T10:20:00,13,28117741,190609
OK,34,63,1057,34,2014-10-01T10:25:00,17,28118190,190609
OK,33,65,1057,33,2014-10-01T10:30:00,22,28118635,190609
OK,32,67,1057,32,2014-10-01T10:35:00,18,28119082,190609
OK,34,63,1057,34,2014-10-01T10:40:00,24,28119526,190609
OK,34,63,1057,34,2014-10-01T10:45:00,22,28119974,190609
OK,31,69,1057,31,2014-10-01T10:50:00,17,28120422,190609
OK,32,67,1057,32,2014-10-01T10:55:00,16,28120871,190609
OK,33,65,1057,33,2014-10-01T11:00:00,11,28121254,190609
OK,34,63,1057,34,2014-10-01T11:05:00,10,28121703,190609
OK,32,67,1057,32,2014-10-01T11:10:00,20,28122141,190609
OK,33,65,1057,33,2014-10-01T11:15:00,20,28122590,190609
OK,36,60,1057,36,2014-10-01T11:20:00,11,28123031,190609
OK,35,61,1057,35,2014-10-01T11:25:00,10,28123480,190609
OK,35,61,1057,35,2014-10-01T11:30:00,24,28123912,190609
OK,34,63,1057,34,2014-10-01T11:35:00,22,28124361,190609
OK,34,63,1057,34,2014-10-01T11:40:00,16,28124763,190609
OK,34,63,1057,34,2014-10-01T11:45:00,16,28125212,190609
OK,32,67,1057,32,2014-10-01T11:50:00,16,28125641,190609
OK,34,63,1057,34,2014-10-01T11:55:00,23,28126090,190609
OK,36,60,1057,36,2014-10-01T12:00:00,18,28126442,190609
OK,32,67,1057,32,2014-10-01T12:10:00,18,28127340,190609
OK,30,72,1057,30,2014-10-01T12:15:00,18,28127789,190609
OK,29,74,1057,29,2014-10-01T12:20:00,16,28128217,190609
OK,30,72,1057,30,2014-10-01T12:25:00,13,28128666,190609
OK,34,63,1057,34,2014-10-01T12:30:00,15,28129101,190609
OK,33,65,1057,33,2014-10-01T12:35:00,26,28129550,190609
OK,32,67,1057,32,2014-10-01T12:40:00,24,28129984,190609
OK,33,65,1057,33,2014-10-01T12:45:00,14,28130433,190609
OK,35,61,1057,35,2014-10-01T12:50:00,29,28130861,190609
OK,32,67,1057,32,2014-10-01T12:55:00,28,28131310,190609
OK,35,61,1057,35,2014-10-01T13:00:00,24,28131747,190609
OK,41,52,1057,41,2014-10-01T13:05:00,27,28132196,190609
OK,33,65,1057,33,2014-10-01T13:10:00,25,28132634,190609
OK,38,57,1057,38,2014-10-01T13:15:00,22,28133081,190609
OK,39,55,1057,39,2014-10-01T13:20:00,28,28133519,190609
OK,38,57,1057,38,2014-10-01T13:25:00,32,28133968,190609
OK,38,57,1057,38,2014-10-01T13:30:00,40,28134407,190609
OK,37,58,1057,37,2014-10-01T13:35:00,48,28134856,190609
OK,36,60,1057,36,2014-10-01T13:40:00,33,28135275,190609
OK,44,49,1057,44,2014-10-01T13:45:00,26,28135724,190609
OK,47,46,1057,47,2014-10-01T13:50:00,25,28136161,190609
OK,41,52,1057,41,2014-10-01T13:55:00,30,28136610,190609
OK,35,61,1057,35,2014-10-01T14:00:00,31,28137050,190609
OK,37,58,1057,37,2014-10-01T14:05:00,27,28137499,190609
OK,37,58,1057,37,2014-10-01T14:10:00,32,28137933,190609
OK,37,58,1057,37,2014-10-01T14:15:00,35,28138382,190609
OK,37,58,1057,37,2014-10-01T14:20:00,33,28138810,190609
OK,40,54,1057,40,2014-10-01T14:25:00,28,28139259,190609
OK,37,58,1057,37,2014-10-01T14:30:00,24,28139670,190609
OK,34,63,1057,34,2014-10-01T14:35:00,28,28140119,190609
OK,33,65,1057,33,2014-10-01T14:40:00,28,28140561,190609
OK,34,63,1057,34,2014-10-01T14:45:00,20,28141010,190609
OK,37,58,1057,37,2014-10-01T14:50:00,22,28141436,190609
OK,37,58,1057,37,2014-10-01T14:55:00,24,28141885,190609
OK,33,65,1057,33,2014-10-01T15:00:00,21,28142313,190609
OK,31,69,1057,31,2014-10-01T15:05:00,22,28142762,190609
OK,30,72,1057,30,2014-10-01T15:10:00,14,28143189,190609
OK,33,65,1057,33,2014-10-01T15:15:00,13,28143638,190609
OK,34,63,1057,34,2014-10-01T15:20:00,25,28144086,190609
OK,31,69,1057,31,2014-10-01T15:25:00,26,28144535,190609
OK,34,63,1057,34,2014-10-01T15:30:00,19,28144956,190609
OK,34,63,1057,34,2014-10-01T15:35:00,23,28145370,190609
OK,34,63,1057,34,2014-10-01T15:40:00,23,28145819,190609
OK,33,65,1057,33,2014-10-01T15:45:00,19,28146268,190609
OK,31,69,1057,31,2014-10-01T15:50:00,17,28146717,190609
OK,33,65,1057,33,2014-10-01T15:55:00,14,28147125,190609
OK,33,65,1057,33,2014-10-01T16:00:00,13,28147569,190609
OK,33,65,1057,33,2014-10-01T16:05:00,9,28148018,190609
OK,38,57,1057,38,2014-10-01T16:10:00,11,28148419,190609
OK,30,72,1057,30,2014-10-01T16:20:00,17,28149307,190609
OK,30,72,1057,30,2014-10-01T16:25:00,14,28149756,190609
OK,29,74,1057,29,2014-10-01T16:30:00,6,28150182,190609
OK,30,72,1057,30,2014-10-01T16:35:00,8,28150631,190609
OK,31,69,1057,31,2014-10-01T16:40:00,10,28151049,190609
OK,30,72,1057,30,2014-10-01T16:45:00,13,28151498,190609
OK,29,74,1057,29,2014-10-01T16:50:00,10,28151947,190609
OK,33,65,1057,33,2014-10-01T17:00:00,3,28152396,190609
OK,26,83,1057,26,2014-10-01T17:05:00,5,28152842,190609
OK,25,86,1057,25,2014-10-01T17:10:00,7,28153289,190609
OK,31,69,1057,31,2014-10-01T17:15:00,11,28153738,190609
OK,29,74,1057,29,2014-10-01T17:20:00,13,28154148,190609
OK,29,74,1057,29,2014-10-01T17:25:00,14,28154597,190609
OK,36,60,1057,36,2014-10-01T17:30:00,8,28155039,190609
OK,36,60,1057,36,2014-10-01T17:35:00,4,28155487,190609
OK,25,86,1057,25,2014-10-01T17:40:00,8,28155905,190609
OK,30,72,1057,30,2014-10-01T17:45:00,11,28156354,190609
OK,30,72,1057,30,2014-10-01T17:50:00,6,28156802,190609
OK,34,63,1057,34,2014-10-01T17:55:00,4,28157241,190609
OK,41,52,1057,41,2014-10-01T18:00:00,6,28157671,190609
OK,30,72,1057,30,2014-10-01T18:05:00,6,28158119,190609
OK,22,98,1057,22,2014-10-01T18:10:00,5,28158563,190609
OK,28,77,1057,28,2014-10-01T18:15:00,7,28159009,190609
OK,27,80,1057,27,2014-10-01T18:20:00,14,28159455,190609
OK,27,80,1057,27,2014-10-01T18:25:00,13,28159790,190609
OK,28,77,1057,28,2014-10-01T18:30:00,6,28160239,190609
OK,35,61,1057,35,2014-10-01T18:35:00,9,28160688,190609
OK,29,74,1057,29,2014-10-01T18:40:00,11,28161126,190609
OK,28,77,1057,28,2014-10-01T18:45:00,8,28161575,190609
OK,30,72,1057,30,2014-10-01T18:50:00,2,28161992,190609
OK,27,80,1057,27,2014-10-01T18:55:00,5,28162441,190609
OK,31,69,1057,31,2014-10-01T19:00:00,12,28162835,190609
OK,28,77,1057,28,2014-10-01T19:05:00,7,28163274,190609
OK,28,77,1057,28,2014-10-01T19:10:00,7,28163722,190609
OK,29,74,1057,29,2014-10-01T19:15:00,7,28164171,190609
OK,31,69,1057,31,2014-10-01T19:20:00,10,28164602,190609
OK,29,74,1057,29,2014-10-01T19:25:00,12,28165051,190609
OK,27,80,1057,27,2014-10-01T19:30:00,8,28165476,190609
OK,31,69,1057,31,2014-10-01T19:35:00,8,28165924,190609
OK,26,83,1057,26,2014-10-01T19:40:00,8,28166365,190609
OK,25,86,1057,25,2014-10-01T19:45:00,7,28166727,190609
OK,27,80,1057,27,2014-10-01T19:50:00,9,28167176,190609
OK,27,80,1057,27,2014-10-01T19:55:00,9,28167605,190609
OK,27,80,1057,27,2014-10-01T20:00:00,6,28168038,190609
OK,30,72,1057,30,2014-10-01T20:05:00,11,28168487,190609
OK,32,67,1057,32,2014-10-01T20:10:00,10,28168932,190609
OK,30,72,1057,30,2014-10-01T20:15:00,8,28169381,190609
OK,32,67,1057,32,2014-10-01T20:20:00,9,28169829,190609
OK,31,69,1057,31,2014-10-01T20:25:00,5,28170255,190609
OK,24,90,1057,24,2014-10-01T20:30:00,7,28170700,190609
OK,26,83,1057,26,2014-10-01T20:35:00,8,28171148,190609
OK,26,83,1057,26,2014-10-01T20:40:00,3,28171585,190609
OK,38,57,1057,38,2014-10-01T20:45:00,1,28172031,190609
OK,38,57,1057,38,2014-10-01T20:50:00,1,28172479,190609
OK,40,54,1057,40,2014-10-01T20:55:00,1,28172925,190609
OK,31,69,1057,31,2014-10-01T21:00:00,2,28173371,190609
OK,23,94,1057,23,2014-10-01T21:05:00,3,28173820,190609
OK,33,65,1057,33,2014-10-01T21:10:00,5,28174261,190609
OK,48,45,1057,48,2014-10-01T21:15:00,3,28174710,190609
OK,32,67,1057,32,2014-10-01T21:20:00,2,28175136,190609
OK,33,65,1057,33,2014-10-01T21:25:00,3,28175532,190609
OK,32,67,1057,32,2014-10-01T21:30:00,4,28175981,190609
OK,32,67,1057,32,2014-10-01T21:35:00,1,28176430,190609
OK,32,67,1057,32,2014-10-01T21:40:00,0,28176879,190609
OK,32,67,1057,32,2014-10-01T21:45:00,0,28177235,190609
OK,32,67,1057,32,2014-10-01T21:50:00,0,28177675,190609
OK,27,80,1057,27,2014-10-01T21:55:00,2,28178121,190609
OK,30,72,1057,30,2014-10-01T22:00:00,0,28178570,190609
OK,30,72,1057,30,2014-10-01T22:05:00,0,28179017,190609
OK,30,72,1057,30,2014-10-01T22:10:00,0,28179451,190609
OK,30,72,1057,30,2014-10-01T22:15:00,0,28179894,190609
OK,29,74,1057,29,2014-10-01T22:20:00,2,28180341,190609
OK,29,74,1057,29,2014-10-01T22:25:00,2,28180739,190609
OK,29,74,1057,29,2014-10-01T22:30:00,0,28181188,190609
OK,29,74,1057,29,2014-10-01T22:35:00,0,28181612,190609
OK,27,80,1057,27,2014-10-01T22:40:00,1,28182060,190609
OK,20,108,1057,20,2014-10-01T22:45:00,1,28182507,190609
OK,20,108,1057,20,2014-10-01T22:50:00,1,28182956,190609
OK,20,108,1057,20,2014-10-01T22:55:00,0,28183373,190609
OK,20,108,1057,20,2014-10-01T23:00:00,0,28183806,190609
OK,20,108,1057,20,2014-10-01T23:05:00,0,28184251,190609
OK,23,94,1057,23,2014-10-01T23:10:00,1,28184700,190609
OK,27,80,1057,27,2014-10-01T23:15:00,1,28185135,190609
OK,27,80,1057,27,2014-10-01T23:20:00,0,28185583,190609
OK,27,80,1057,27,2014-10-01T23:25:00,0,28186014,190609
OK,27,80,1057,27,2014-10-01T23:30:00,0,28186406,190609
OK,27,80,1057,27,2014-10-01T23:40:00,0,28187253,190609
OK,27,80,1057,27,2014-10-01T23:55:00,0,28188585,190609
OK,27,80,1057,27,2014-10-02T00:05:00,0,28189470,190609
OK,27,80,1057,27,2014-10-02T00:10:00,0,28189892,190609
OK,27,80,1057,27,2014-10-02T00:15:00,0,28190341,190609
OK,27,80,1057,27,2014-10-02T00:20:00,0,28190694,190609
OK,27,80,1057,27,2014-10-02T00:30:00,0,28191592,190609
OK,27,80,1057,27,2014-10-02T00:35:00,0,28191898,190609
OK,27,80,1057,27,2014-10-02T00:45:00,0,28192780,190609
OK,27,80,1057,27,2014-10-02T00:50:00,0,28193224,190609
OK,27,80,1057,27,2014-10-02T00:55:00,0,28193591,190609
OK,27,80,1057,27,2014-10-02T01:05:00,0,28194489,190609
OK,27,80,1057,27,2014-10-02T01:10:00,0,28194938,190609
OK,27,80,1057,27,2014-10-02T01:15:00,0,28195174,190609
OK,27,80,1057,27,2014-10-02T01:25:00,0,28196072,190609
OK,26,83,1057,26,2014-10-02T01:30:00,1,28196356,190609
OK,26,83,1057,26,2014-10-02T01:35:00,0,28196805,190609
OK,26,83,1057,26,2014-10-02T01:40:00,0,28197228,190609
OK,26,83,1057,26,2014-10-02T01:45:00,0,28197677,190609
OK,26,83,1057,26,2014-10-02T01:50:00,0,28198125,190609
OK,26,83,1057,26,2014-10-02T01:55:00,0,28198573,190609
OK,26,83,1057,26,2014-10-02T02:00:00,0,28199022,190609
OK,26,83,1057,26,2014-10-02T02:05:00,0,28199394,190609
OK,26,83,1057,26,2014-10-02T02:10:00,0,28199836,190609
OK,27,80,1057,27,2014-10-02T02:15:00,1,28200278,190609
OK,27,80,1057,27,2014-10-02T02:20:00,0,28200721,190609
OK,27,80,1057,27,2014-10-02T02:25:00,0,28201170,190609
OK,27,80,1057,27,2014-10-02T02:30:00,0,28201601,190609
OK,27,80,1057,27,2014-10-02T02:45:00,0,28202499,190609
OK,34,63,1057,34,2014-10-02T02:50:00,2,28202941,190609
OK,34,63,1057,34,2014-10-02T02:55:00,0,28203389,190609
OK,34,63,1057,34,2014-10-02T03:00:00,0,28203824,190609
OK,34,63,1057,34,2014-10-02T03:10:00,0,28204273,190609
OK,34,63,1057,34,2014-10-02T03:25:00,0,28204722,190609
OK,34,63,1057,34,2014-10-02T03:30:00,0,28205171,190609
OK,25,86,1057,25,2014-10-02T03:35:00,1,28205599,190609
OK,25,86,1057,25,2014-10-02T03:40:00,1,28206046,190609
OK,125,17,1057,125,2014-10-02T03:45:00,2,28206429,190609
OK,125,17,1057,125,2014-10-02T03:55:00,0,28207327,190609
OK,125,17,1057,125,2014-10-02T04:00:00,0,28207746,190609
OK,125,17,1057,125,2014-10-02T04:05:00,0,28208195,190609
OK,27,80,1057,27,2014-10-02T04:10:00,2,28208622,190609
OK,24,90,1057,24,2014-10-02T04:15:00,0,28209071,190609
OK,25,86,1057,25,2014-10-02T04:20:00,1,28209509,190609
OK,25,86,1057,25,2014-10-02T04:25:00,1,28209958,190609
OK,30,72,1057,30,2014-10-02T04:30:00,2,28210381,190609
OK,28,77,1057,28,2014-10-02T04:35:00,1,28210830,190609
OK,32,67,1057,32,2014-10-02T04:40:00,6,28211255,190609
OK,36,60,1057,36,2014-10-02T04:45:00,1,28211699,190609
OK,36,60,1057,36,2014-10-02T04:50:00,0,28212077,190609
OK,36,60,1057,36,2014-10-02T05:00:00,0,28212955,190609
OK,33,65,1057,33,2014-10-02T05:05:00,3,28213404,190609
OK,34,63,1057,34,2014-10-02T05:10:00,0,28213842,190609
OK,35,61,1057,35,2014-10-02T05:15:00,5,28214291,190609
OK,35,61,1057,35,2014-10-02T05:20:00,0,28214704,190609
OK,36,60,1057,36,2014-10-02T05:25:00,8,28215153,190609
OK,34,63,1057,34,2014-10-02T05:30:00,2,28215569,190609
OK,34,63,1057,34,2014-10-02T05:35:00,0,28216018,190609
OK,31,69,1057,31,2014-10-02T05:40:00,11,28216357,190609
OK,37,58,1057,37,2014-10-02T05:45:00,7,28216797,190609
OK,37,58,1057,37,2014-10-02T05:50:00,0,28217244,190609
OK,32,67,1057,32,2014-10-02T05:55:00,11,28217693,190609
OK,32,67,1057,32,2014-10-02T06:00:00,10,28218132,190609
OK,35,61,1057,35,2014-10-02T06:05:00,9,28218581,190609
OK,26,83,1057,26,2014-10-02T06:10:00,3,28219001,190609
OK,32,67,1057,32,2014-10-02T06:15:00,15,28219450,190609
OK,32,67,1057,32,2014-10-02T06:20:00,9,28219823,190609
OK,29,74,1057,29,2014-10-02T06:30:00,11,28220706,190609
OK,28,77,1057,28,2014-10-02T06:35:00,8,28221155,190609
OK,30,72,1057,30,2014-10-02T06:40:00,13,28221536,190609
OK,31,69,1057,31,2014-10-02T06:45:00,11,28221822,190609
OK,41,52,1057,41,2014-10-02T07:00:00,14,28222416,190609
OK,31,69,1057,31,2014-10-02T07:10:00,7,28223296,190609
OK,49,44,1057,49,2014-10-02T07:15:00,0,28223731,190609
OK,49,44,1057,49,2014-10-02T07:20:00,0,28224179,190609
OK,34,63,1057,34,2014-10-02T07:25:00,7,28224534,190609
OK,33,65,1057,33,2014-10-02T07:35:00,11,28225432,190609
OK,38,57,1057,38,2014-10-02T07:40:00,6,28225754,190609
OK,36,60,1057,36,2014-10-02T07:50:00,9,28226644,190609
OK,33,65,1057,33,2014-10-02T07:55:00,10,28227093,190609
OK,32,67,1057,32,2014-10-02T08:00:00,5,28227508,190609
OK,29,74,1057,29,2014-10-02T08:05:00,7,28227957,190609
OK,36,60,1057,36,2014-10-02T08:10:00,5,28228316,190609
OK,35,61,1057,35,2014-10-02T08:20:00,5,28229175,190609
OK,37,58,1057,37,2014-10-02T08:25:00,11,28229624,190609
OK,37,58,1057,37,2014-10-02T08:30:00,3,28229974,190609
OK,29,74,1057,29,2014-10-02T08:40:00,2,28230789,190609
OK,29,74,1057,29,2014-10-02T08:45:00,0,28231237,190609
OK,29,74,1057,29,2014-10-02T08:50:00,9,28231661,190609
OK,31,69,1057,31,2014-10-02T08:55:00,5,28232110,190609
OK,30,72,1057,30,2014-10-02T09:00:00,7,28232452,190609
OK,34,63,1057,34,2014-10-02T09:10:00,0,28232901,190609
OK,35,61,1057,35,2014-10-02T09:15:00,15,28233350,190609
OK,50,43,1057,50,2014-10-02T09:20:00,2,28233774,190609
OK,33,65,1057,33,2014-10-02T09:25:00,9,28234223,190609
OK,29,74,1057,29,2014-10-02T09:30:00,4,28234556,190609
OK,34,63,1057,34,2014-10-02T09:40:00,0,28235432,190609
OK,34,63,1057,34,2014-10-02T09:45:00,4,28235881,190609
OK,29,74,1057,29,2014-10-02T09:50:00,2,28236324,190609
OK,33,65,1057,33,2014-10-02T09:55:00,14,28236771,190609
OK,35,61,1057,35,2014-10-02T10:00:00,7,28237174,190609
OK,30,72,1057,30,2014-10-02T10:05:00,0,28237621,190609
OK,40,54,1057,40,2014-10-02T10:10:00,20,28238070,190609
OK,39,55,1057,39,2014-10-02T10:15:00,18,28238517,190609
OK,34,63,1057,34,2014-10-02T10:20:00,10,28238958,190609
OK,31,69,1057,31,2014-10-02T10:25:00,4,28239407,190609
OK,31,69,1057,31,2014-10-02T10:30:00,1,28239837,190609
OK,33,65,1057,33,2014-10-02T10:35:00,12,28240286,190609
OK,33,65,1057,33,2014-10-02T10:40:00,13,28240730,190609
OK,33,65,1057,33,2014-10-02T10:45:00,20,28241179,190609
OK,31,69,1057,31,2014-10-02T10:50:00,5,28241611,190609
OK,33,65,1057,33,2014-10-02T10:55:00,16,28242059,190609
OK,33,65,1057,33,2014-10-02T11:00:00,9,28242455,190609
OK,34,63,1057,34,2014-10-02T11:05:00,0,28242904,190609
OK,37,58,1057,37,2014-10-02T11:10:00,19,28243353,190609
OK,39,55,1057,39,2014-10-02T11:15:00,8,28243678,190609
OK,31,69,1057,31,2014-10-02T11:20:00,6,28244116,190609
OK,28,77,1057,28,2014-10-02T11:25:00,3,28244545,190609
OK,26,83,1057,26,2014-10-02T11:30:00,0,28244994,190609
OK,32,67,1057,32,2014-10-02T11:35:00,14,28245443,190609
OK,31,69,1057,31,2014-10-02T11:40:00,4,28245849,190609
OK,29,74,1057,29,2014-10-02T11:45:00,0,28246298,190609
OK,32,67,1057,32,2014-10-02T11:50:00,21,28246735,190609
OK,33,65,1057,33,2014-10-02T11:55:00,18,28247184,190609
OK,32,67,1057,32,2014-10-02T12:00:00,25,28247630,190609
OK,31,69,1057,31,2014-10-02T12:05:00,13,28248060,190609
OK,36,60,1057,36,2014-10-02T12:10:00,0,28248509,190609
OK,36,60,1057,36,2014-10-02T12:15:00,15,28248956,190609
OK,40,54,1057,40,2014-10-02T12:20:00,4,28249384,190609
OK,37,58,1057,37,2014-10-02T12:25:00,16,28249828,190609
OK,36,60,1057,36,2014-10-02T12:30:00,6,28250247,190609
OK,33,65,1057,33,2014-10-02T12:35:00,20,28250645,190609
OK,37,58,1057,37,2014-10-02T13:20:00,27,28251970,190609
OK,36,60,1057,36,2014-10-02T13:30:00,18,28252554,190609
OK,36,60,1057,36,2014-10-02T13:35:00,11,28252996,190609
OK,33,65,1057,33,2014-10-02T13:40:00,0,28253413,190609
OK,36,60,1057,36,2014-10-02T13:50:00,16,28254267,190609
OK,35,61,1057,35,2014-10-02T13:55:00,26,28254588,190609
OK,37,58,1057,37,2014-10-02T14:10:00,22,28255165,190609
OK,35,61,1057,35,2014-10-02T14:15:00,37,28255614,190609
OK,35,61,1057,35,2014-10-02T14:20:00,35,28256042,190609
OK,37,58,1057,37,2014-10-02T14:25:00,12,28256491,190609
OK,35,61,1057,35,2014-10-02T14:30:00,29,28256919,190609
OK,31,69,1057,31,2014-10-02T14:35:00,20,28257368,190609
OK,31,69,1057,31,2014-10-02T14:40:00,18,28257809,190609
OK,37,58,1057,37,2014-10-02T14:45:00,28,28258257,190609
OK,35,61,1057,35,2014-10-02T14:50:00,31,28258690,190609
OK,35,61,1057,35,2014-10-02T14:55:00,25,28259136,190609
OK,35,61,1057,35,2014-10-02T15:00:00,22,28259585,190609
OK,41,52,1057,41,2014-10-02T15:05:00,18,28260032,190609
OK,41,52,1057,41,2014-10-02T15:10:00,16,28260465,190609
OK,37,58,1057,37,2014-10-02T15:15:00,24,28260914,190609
OK,33,65,1057,33,2014-10-02T15:20:00,11,28261354,190609
OK,32,67,1057,32,2014-10-02T15:25:00,31,28261736,190609
OK,35,61,1057,35,2014-10-02T15:40:00,17,28263059,190609
OK,32,67,1057,32,2014-10-02T15:45:00,15,28263497,190609
OK,28,77,1057,28,2014-10-02T15:50:00,4,28263938,190609
OK,46,47,1057,46,2014-10-02T15:55:00,0,28264340,190609
OK,35,61,1057,35,2014-10-02T16:00:00,16,28264789,190609
OK,36,60,1057,36,2014-10-02T16:05:00,16,28265227,190609
OK,28,77,1057,28,2014-10-02T16:10:00,17,28265667,190609
OK,28,77,1057,28,2014-10-02T16:15:00,5,28266063,190609
OK,35,61,1057,35,2014-10-02T16:20:00,12,28266512,190609
OK,29,74,1057,29,2014-10-02T16:25:00,9,28266961,190609
OK,30,72,1057,30,2014-10-02T16:30:00,7,28267284,190609
OK,45,48,1057,45,2014-10-02T16:40:00,0,28268182,190609
OK,35,61,1057,35,2014-10-02T16:45:00,7,28268624,190609
OK,29,74,1057,29,2014-10-02T16:50:00,1,28269073,190609
OK,26,83,1057,26,2014-10-02T16:55:00,1,28269522,190609
OK,41,52,1057,41,2014-10-02T17:00:00,7,28269957,190609